Regional Weather Roundup
Issued by NWS

Home | Current Version | Previous Version | Text Only | Print | Product List | Glossary On
Versions: 1 2 3 4 5 6 7 8 9 10 11 12 13 14 15 16 17 18 19 20 21 22 23 24 25 26 27 28 29 30 31 32 33 34 35 36 37 38 39 40 41 42 43 44 45 46 47 48 49 50
000
ASUS43 KLOT 281412
RWRIL

ILLINOIS REGIONAL WEATHER ROUNDUP
NATIONAL WEATHER SERVICE CHICAGO/ROMEOVILLE IL
900 AM CDT SAT MAR 28 2015

NOTE: "FAIR" INDICATES FEW OR NO CLOUDS BELOW 12,000 FEET WITH NO
SIGNIFICANT WEATHER AND/OR OBSTRUCTIONS TO VISIBILITY.

* THESE STATIONS ARE NOT UNDER NWS QUALITY CONTROL. THEY ALSO MAY NOT
  REPORT WEATHER SUCH AS PRECIPITATION OR FOG.

ILZ001-002-007-009-015-016-024-281500-
NORTHWEST ILLINOIS

CITY           SKY/WX    TMP DP  RH WIND       PRES   REMARKS
MOLINE         SUNNY     26  18  71 SE8       30.32R WCI  18
STERLING*      SUNNY     28  18  64 SE5       30.33R WCI  23
SAVANNA*       SUNNY     26  18  72 S6        30.33R WCI  20
$$

ILZ003-004-008-010-011-017-018-281500-
NORTH CENTRAL ILLINOIS

CITY           SKY/WX    TMP DP  RH WIND       PRES   REMARKS
ROCKFORD       MOSUNNY   27  18  69 SE6       30.34R WCI  20
FREEPORT*      SUNNY     24  18  78 CALM      30.34R
ROCHELLE*      SUNNY     26  17  70 E3        30.33R
DE KALB*       SUNNY     24  17  73 NE6       30.32R WCI  17
PERU*          SUNNY     28  18  68 E5        30.33S WCI  22
$$

ILZ005-006-012>014-019>023-281500-
NORTHEAST ILLINOIS

CITY           SKY/WX    TMP DP  RH WIND       PRES   REMARKS
CHICAGO-OHARE  MOSUNNY   28  13  53 N6        30.31R WCI  22
CHICAGO-MIDWAY MOSUNNY   30  12  47 NE7       30.32R WCI  23
AURORA         SUNNY     26  16  65 NE7       30.33R WCI  18
LANSING*       SUNNY     25  10  51 CALM      30.32R
JOLIET*        SUNNY     28  16  60 NE7       30.33R WCI  21
WAUKEGAN       SUNNY     26  14  60 NE8       30.32R WCI  18
DUPAGE AIRPORT SUNNY     26  18  71 N7        30.31R WCI  18
KANKAKEE*      SUNNY     25  15  64 E5        30.33R WCI  20
WHEELING       SUNNY     27  11  51 NE10      30.33R WCI  17
MORRIS*        SUNNY     27  18  69 N3        30.32R
ROMEOVILLE*    SUNNY     27  14  56 NE8       30.32R WCI  19
NORTHERLY ISL    N/A     27  13  55 NE10        N/A  WCI  17
$$

LMZ740>746-281500-
SOUTHERN LAKE MICHIGAN

STATION/POSITION SKY/WX   TEMP    WIND        PRES    VSBY  WAVE
                          AIR SEA DIR/SP/G                  HT/PER
                          (F)     (DEG/KT/KT) (MB)    (MI)  (FT/S)
HARRISON CRIB              25      50/ 10/ 13   N/A
BURNHAM HARBOR             27      10/  6/ 12   N/A
CALUMET HARBOR             26      20/  8/ 13 1024.8R
BURNS HARBOR               21      90/  9/ 10 1026.4R
MICHIGAN CITY              19      70/  7/  8   N/A
$$

ILZ025>027-034>036-040-047-049-050-058-095>099-281500-
WEST-CENTRAL ILLINOIS

CITY           SKY/WX    TMP DP  RH WIND       PRES   REMARKS
QUINCY         MOSUNNY   30  17  58 SE10      30.28R WCI  21
GALESBURG*     SUNNY     27  18  70 E8        30.32R WCI  18
MACOMB*        SUNNY     28  20  72 SE13      30.34R WCI  17
JACKSONVILLE*  MOSUNNY   30  22  72 E10       30.32R WCI  21
PITTSFIELD*    MOSUNNY   31  23  72 E7        30.31R WCI  24
$$

ILZ028>032-037-038-041>044-048-051>054-059>061-281500-
CENTRAL ILLINOIS

CITY           SKY/WX    TMP DP  RH WIND       PRES   REMARKS
PONTIAC        SUNNY     28  20  73 NE5       30.33R WCI  22
BLOOMINGTON    SUNNY     27  18  69 NE10      30.31R WCI  17
DECATUR        SUNNY     27  18  69 E6        30.32R WCI  20
PEORIA         SUNNY     28  15  58 SE3       30.33R
LACON*         SUNNY     27  17  67 E5        30.33R WCI  21
LINCOLN*       SUNNY     28  19  69 CALM      30.34R
SPRINGFIELD    SUNNY     29  16  58 SE6       30.33R WCI  23
TAYLORVILLE    MOSUNNY   28  16  59 E8        30.33R WCI  20
$$

ILZ033-039-045-046-055>057-062-063-281500-
EAST-CENTRAL ILLINOIS

CITY           SKY/WX    TMP DP  RH WIND       PRES   REMARKS
CHAMPAIGN      SUNNY     26  15  63 NE9       30.30R WCI  17
DANVILLE*      SUNNY     24  15  67 NE8       30.28R WCI  15
RANTOUL*       SUNNY     27  18  67 NE5       30.31R WCI  22
MATTOON        SUNNY     25  16  68 NE14      30.30R WCI  13
PARIS*         SUNNY     26  17  68 N7        30.31R WCI  19
$$

ILZ079-100>102-281500-
SOUTHWEST ILLINOIS

CITY           SKY/WX    TMP DP  RH WIND       PRES   REMARKS
BELLEVILLE     CLOUDY    30  23  74 E6        30.31R WCI  24
CAHOKIA*       MOSUNNY   32  23  69 E6        30.32R WCI  26
SPARTA*        MOSUNNY   30  22  72 E5        30.32R WCI  25
$$

ILZ064>066-069>071-074>076-080>082-084>086-088>090-092>094-281500-
SOUTH-CENTRAL ILLINOIS

CITY           SKY/WX    TMP DP  RH WIND       PRES   REMARKS
CARBONDALE     MOSUNNY   31  20  63 NE6       30.31R WCI  25
CAIRO*         MOSUNNY   34  26  73 NE5       30.31R WCI  30
EFFINGHAM*     SUNNY     27  13  55 NE6       30.34R WCI  21
MARION         MOSUNNY   30  23  74 NE6       30.32R WCI  24
MT. VERNON     SUNNY     28  18  64 NE6       30.32R WCI  22
CENTRALIA*     MOSUNNY   29  17  61 NE7       30.32R WCI  22
SALEM*         MOSUNNY   30  18  61 E5        30.32R WCI  25
METROPOLIS*    MOSUNNY   32  27  82 CALM      30.30R
$$

ILZ067-068-072-073-078-083-087-091-281500-
SOUTHEAST ILLINOIS

CITY           SKY/WX    TMP DP  RH WIND       PRES   REMARKS
LAWRENCEVILLE  SUNNY     27  16  63 NE9       30.32R WCI  18
FLORA*         SUNNY     27  15  62 NE6       30.32R WCI  20
FAIRFIELD*     SUNNY     28  17  62 N7        30.31R WCI  21
HARRISBURG*    SUNNY     30  20  65 NE6       30.33R WCI  24
ROBINSON*      SUNNY     26  17  71 NE8       30.33R WCI  17
CARMI*         SUNNY     29  13  52 N7        30.31R WCI  22
$$

ABBREVIATIONS USED IN REMARKS
   TC - TEMPERATURE IN CELSIUS
  WCI - WIND CHILL INDEX
   HX - HEAT INDEX
  VSB - VISIBILITY
$$



USA.gov is the U.S. government's official web portal to all federal, state and local government web resources and services.